Date,TemperatureHighF,TemperatureAvgF,TemperatureLowF,DewpointHighF,DewpointAvgF,DewpointLowF,HumidityHigh,HumidityAvg,HumidityLow,PressureMaxIn,PressureMinIn,WindSpeedMaxMPH,WindSpeedAvgMPH,GustSpeedMaxMPH,PrecipitationSumIn
2014-1-1,26,20,14,14,10,7,84,65,47,30.30,30.10,3,0,14,0.00
2014-1-2,20,11,1,15,8,-3,88,86,76,30.28,29.79,10,4,21,0.00
2014-1-3,12,5,-3,7,-1,-10,86,77,62,30.31,29.65,10,4,21,0.00
2014-1-4,-3,-4,-10,-6,-8,-14,86,84,78,30.40,30.29,0,0,1,0.00
2014-1-5,38,15,-3,34,11,-6,96,84,55,30.40,29.90,2,0,7,0.00
2014-1-6,56,42,29,56,40,20,98,92,68,29.82,29.19,7,2,21,0.00
2014-1-7,27,14,8,17,-1,-8,69,51,41,30.11,29.42,7,2,24,0.00
2014-1-8,19,10,7,4,-2,-5,63,58,50,30.35,30.12,3,1,12,0.00
2014-1-9,28,18,11,11,8,6,87,67,43,30.56,30.33,5,1,12,0.00
2014-1-10,35,25,8,33,23,6,94,90,86,30.51,30.20,3,0,8,0.00
2014-1-11,57,47,33,56,46,31,98,96,92,30.18,29.19,13,3,30,0.00
2014-1-12,53,42,35,51,34,27,95,72,53,29.87,29.19,7,2,18,0.00
2014-1-13,51,40,28,43,31,24,89,71,46,30.03,29.82,6,2,16,0.00
2014-1-14,48,46,42,45,44,41,97,93,87,29.80,29.53,7,1,18,0.67
2014-1-15,46,37,30,39,34,29,98,90,70,29.93,29.68,3,0,12,0.01
2014-1-16,37,34,30,37,33,29,97,97,95,29.85,29.76,2,0,5,0.00
2014-1-17,44,36,29,35,30,25,97,80,49,29.90,29.82,6,0,15,0.00
2014-1-18,35,32,29,33,31,26,96,94,90,29.84,29.54,3,0,8,0.08
2014-1-19,32,31,28,31,27,23,97,88,78,29.64,29.45,5,1,15,0.05
2014-1-20,40,33,24,29,26,14,81,74,57,29.76,29.41,5,2,18,0.03
2014-1-21,21,14,11,11,4,-2,86,67,47,29.98,29.80,7,2,15,0.00
2014-1-22,16,11,7,6,-1,-4,82,59,46,29.78,29.55,7,4,20,0.00
2014-1-23,21,11,4,2,-2,-6,68,55,38,30.05,29.81,3,1,12,0.00
2014-1-24,18,10,2,2,-2,-4,77,58,38,30.16,29.98,7,1,15,0.00
2014-1-25,37,26,14,27,18,2,88,70,57,29.94,29.24,10,3,29,0.00
2014-1-26,25,19,14,18,5,-4,79,55,39,29.79,29.25,6,2,22,0.00
2014-1-27,44,29,20,38,19,6,88,68,41,29.88,29.43,7,2,20,0.00
2014-1-28,20,16,11,6,-2,-7,54,44,33,30.20,29.91,6,1,14,0.00
2014-1-29,25,19,15,8,1,-5,73,46,28,30.13,29.87,5,0,13,0.00
2014-1-30,29,21,12,12,6,0,71,54,42,30.34,30.12,3,1,12,0.00
2014-1-31,40,31,20,24,20,13,85,64,37,30.09,29.92,3,0,14,0.00
2014-2-1,43,35,25,30,25,21,86,68,46,30.26,29.96,7,1,14,0.00
2014-2-2,51,39,30,42,35,28,94,85,57,29.96,29.77,3,0,10,0.00
2014-2-3,37,31,21,33,27,19,93,84,65,30.20,29.98,5,1,12,0.00
2014-2-4,34,25,14,24,19,12,94,80,59,30.37,30.20,2,0,9,0.00
2014-2-5,33,27,23,31,25,20,94,91,87,30.21,29.56,6,1,15,0.00
2014-2-6,26,19,10,20,13,7,90,78,53,30.18,29.88,2,0,12,0.00
2014-2-7,29,18,2,14,10,0,88,70,49,30.17,30.06,5,0,12,0.00
2014-2-8,30,20,6,15,7,1,81,60,40,30.20,30.04,3,0,13,0.00
2014-2-9,30,25,20,24,17,10,93,73,54,30.08,29.86,3,1,10,0.00
2014-2-10,27,20,7,23,12,2,92,71,49,30.12,29.81,7,2,16,0.00
2014-2-11,24,12,-4,9,2,-7,87,67,44,30.34,30.12,6,1,16,0.00
2014-2-12,27,14,0,7,1,-6,78,59,32,30.48,30.35,3,0,12,0.00
2014-2-13,34,26,10,32,24,5,95,90,80,30.32,28.98,12,2,29,0.00
2014-2-14,36,33,29,32,28,23,96,83,69,29.62,28.74,9,3,23,0.00
2014-2-15,36,29,22,29,26,20,95,87,66,29.76,29.39,6,1,18,0.00
2014-2-16,32,26,20,28,15,11,94,64,44,29.86,29.38,9,3,21,0.00
2014-2-17,27,18,6,4,0,-2,74,46,30,30.27,29.90,9,4,22,0.00
2014-2-18,33,20,1,32,16,-4,95,85,68,30.29,29.80,7,1,13,0.00
2014-2-19,35,27,14,32,25,12,96,91,82,30.01,29.63,2,0,9,0.06
2014-2-20,47,36,28,34,30,27,96,81,50,30.13,29.75,5,0,10,0.26
2014-2-21,39,36,32,38,35,32,97,96,94,30.08,29.59,3,1,13,0.40
2014-2-22,51,40,29,35,29,25,97,69,37,29.87,29.75,7,2,21,0.00
2014-2-23,49,38,27,32,28,24,90,69,45,29.90,29.69,1,0,9,0.00
2014-2-24,35,31,23,30,17,9,89,58,45,29.85,29.65,7,2,18,0.00
2014-2-25,28,22,16,12,9,7,77,59,43,29.89,29.78,7,1,17,0.00
2014-2-26,30,19,9,14,6,-4,84,60,34,29.84,29.67,6,1,17,0.00
2014-2-27,28,17,4,21,6,-2,83,62,37,29.79,29.50,8,2,16,0.00
2014-2-28,24,14,6,0,-4,-8,69,44,25,30.34,29.82,7,1,15,0.00
2014-3-1,35,21,1,23,10,-3,83,64,40,30.36,30.01,5,1,15,0.00
2014-3-2,39,33,30,26,23,17,78,67,57,29.99,29.88,3,0,9,0.00
2014-3-3,28,20,9,16,5,-2,61,52,39,30.20,29.91,7,3,16,0.00
2014-3-4,28,17,0,14,2,-4,83,56,33,30.29,30.16,3,0,12,0.00
2014-3-5,25,22,15,20,16,12,90,76,63,30.40,30.15,5,1,12,0.00
2014-3-6,29,17,6,10,2,-6,82,55,23,30.55,30.41,7,1,12,0.00
2014-3-7,36,22,1,26,15,-3,88,75,57,30.41,29.89,5,1,20,0.00
2014-3-8,52,36,20,28,24,17,93,66,37,29.86,29.60,6,1,15,0.00
2014-3-9,40,32,25,21,15,8,70,50,30,29.84,29.77,8,2,16,0.00
2014-3-10,43,34,28,32,25,16,90,70,48,29.79,29.58,5,1,10,0.00
2014-3-11,56,42,33,35,32,28,93,70,37,29.63,29.41,6,1,13,0.00
2014-3-12,47,39,35,39,35,30,96,86,65,29.63,28.95,3,0,15,0.38
2014-3-13,35,21,16,34,14,2,95,75,49,29.83,28.93,9,4,25,0.06
2014-3-14,38,25,7,27,11,0,80,56,38,30.08,29.83,6,2,17,0.06
2014-3-15,56,43,36,37,32,28,85,65,44,29.81,29.56,5,2,16,0.02
2014-3-16,37,30,23,23,10,4,61,45,31,30.12,29.79,8,3,18,0.00
2014-3-17,29,22,15,12,2,-4,79,44,28,30.10,29.96,8,2,16,0.00
2014-3-18,38,24,12,21,14,6,85,67,42,30.27,30.08,6,1,13,0.00
2014-3-19,41,31,18,31,25,16,92,78,62,30.31,29.94,8,2,18,0.00
2014-3-20,49,41,36,42,34,29,96,78,48,29.84,29.51,7,2,15,0.27
2014-3-21,42,37,31,28,25,23,74,61,47,29.93,29.65,7,2,18,0.00
2014-3-22,54,38,25,41,27,20,86,65,42,29.96,29.56,7,2,20,0.02
2014-3-23,43,35,25,26,19,6,80,54,32,29.97,29.82,7,2,17,0.00
2014-3-24,32,23,16,11,4,1,67,44,29,30.08,29.95,8,2,20,0.00
2014-3-25,38,27,14,22,13,10,83,59,32,30.06,29.87,3,1,20,0.00
2014-3-26,34,30,24,20,13,4,65,48,35,29.89,29.49,14,7,35,0.00
2014-3-27,45,31,20,16,6,2,48,36,21,30.21,29.92,9,2,23,0.00
2014-3-28,58,45,35,48,36,18,91,71,49,30.16,29.86,7,3,20,0.02
2014-3-29,51,44,36,46,39,34,96,85,64,30.16,29.92,7,1,14,0.66
2014-3-30,41,39,35,40,38,34,96,95,94,29.91,29.56,9,6,21,1.71
2014-3-31,41,37,34,38,34,31,97,90,71,29.92,29.62,8,3,21,0.29
2014-4-1,55,42,32,36,31,28,84,67,45,30.02,29.92,7,2,17,0.00
2014-4-2,55,40,28,36,31,27,95,73,42,30.04,29.93,5,1,12,0.00
2014-4-3,55,39,26,32,28,24,96,69,32,30.06,29.96,7,2,16,0.00
2014-4-4,48,40,31,37,32,29,92,76,56,30.08,29.85,10,2,18,0.15
2014-4-5,53,42,36,43,35,26,96,77,49,29.83,29.61,6,2,18,0.17
2014-4-6,56,46,31,26,23,20,76,46,25,30.02,29.84,6,2,14,0.00
2014-4-7,60,54,43,40,26,20,90,36,25,30.15,29.88,6,2,16,0.02
2014-4-8,66,53,44,58,48,35,97,84,56,29.83,29.20,9,2,25,0.31
2014-4-9,54,48,34,39,36,32,93,64,54,29.54,29.42,3,2,12,0.00
2014-4-10,63,55,49,38,31,22,55,41,21,30.07,29.54,8,4,22,0.00
2014-4-11,70,58,48,53,43,35,86,60,39,29.93,29.82,6,2,16,0.02
2014-4-12,69,56,44,48,40,32,96,62,28,30.11,29.89,5,1,14,0.05
2014-4-13,61,48,43,46,42,37,90,79,54,30.20,29.95,5,1,10,0.04
2014-4-14,78,61,41,58,51,39,97,71,48,29.95,29.79,14,4,31,0.00
2014-4-15,69,62,46,60,58,44,94,87,68,29.82,29.49,18,8,38,0.52
2014-4-16,43,36,29,40,25,16,95,65,39,30.52,29.65,9,4,23,0.15
2014-4-17,43,35,28,29,24,20,89,66,51,30.74,30.55,9,3,20,0.00
2014-4-18,46,37,27,35,31,25,93,79,61,30.58,30.19,7,2,15,0.00
2014-4-19,62,48,33,40,34,28,94,61,35,30.31,30.08,8,3,26,0.00
2014-4-20,56,43,30,34,28,22,91,60,33,30.44,30.27,8,2,16,0.00
2014-4-21,71,51,31,36,30,23,93,53,17,30.25,29.79,6,2,15,0.00
2014-4-22,76,60,46,52,44,40,90,58,28,29.74,29.38,8,3,17,0.03
2014-4-23,56,51,46,52,45,35,95,82,63,29.51,29.34,10,3,26,0.35
2014-4-24,58,49,41,35,29,23,65,47,34,29.82,29.52,14,6,27,0.00
2014-4-25,66,50,35,40,32,26,87,54,24,29.92,29.74,7,2,13,0.00
2014-4-26,49,45,42,43,40,34,94,82,56,29.79,29.71,3,0,12,0.23
2014-4-27,50,44,41,45,42,39,95,90,73,29.96,29.77,3,0,12,0.19
2014-4-28,59,48,37,42,39,35,95,74,53,30.14,29.91,6,2,18,0.01
2014-4-29,46,43,41,40,37,34,86,79,74,30.45,30.16,9,4,22,0.00
2014-4-30,46,42,40,41,39,36,95,87,75,30.46,30.13,8,2,16,0.28
2014-5-1,64,51,42,60,49,41,97,94,81,30.09,29.58,5,1,13,0.49
2014-5-2,68,57,45,50,45,39,97,69,39,29.71,29.57,3,1,18,0.01
2014-5-3,66,56,42,48,44,39,91,66,44,29.77,29.63,5,1,14,0.00
2014-5-4,60,54,48,46,42,38,80,63,45,29.62,29.45,6,2,16,0.00
2014-5-5,65,56,49,46,42,39,78,62,46,29.76,29.52,7,3,21,0.01
2014-5-6,64,53,40,41,37,29,93,58,31,29.94,29.74,7,2,21,0.00
2014-5-7,69,53,37,42,36,28,87,57,22,30.09,29.95,5,1,15,0.00
2014-5-8,71,55,38,47,41,37,95,66,33,30.10,29.99,5,1,14,0.00
2014-5-9,56,53,50,51,49,46,92,86,73,30.16,30.04,2,0,9,0.01
2014-5-10,80,67,54,65,60,50,97,82,51,29.99,29.66,5,1,14,0.16
2014-5-11,81,68,57,60,46,34,92,50,19,29.93,29.69,5,1,12,0.00
2014-5-12,86,69,48,54,47,42,86,52,24,30.02,29.86,8,1,28,0.00
2014-5-13,53,50,45,45,42,37,83,73,61,30.25,30.05,9,2,21,0.00
2014-5-14,64,55,46,53,48,41,88,77,62,30.26,30.18,8,2,17,0.00
2014-5-15,79,67,58,66,60,54,94,80,61,30.21,30.12,7,2,17,0.01
2014-5-16,74,65,61,64,61,59,96,87,69,30.11,29.91,7,3,21,0.21
2014-5-17,76,66,56,64,55,42,97,72,35,29.97,29.77,5,1,16,0.48
2014-5-18,70,58,46,50,46,41,88,66,42,30.02,29.93,5,1,13,0.00
2014-5-19,66,56,46,49,43,37,94,63,40,30.00,29.91,6,1,23,0.10
2014-5-20,74,59,47,51,49,45,96,72,41,29.93,29.85,7,1,20,0.01
2014-5-21,70,58,45,57,51,43,97,78,57,29.92,29.85,6,2,14,0.00
2014-5-22,63,56,50,56,53,49,96,89,71,29.88,29.79,7,1,15,0.06
2014-5-23,62,56,52,56,52,49,96,88,74,29.91,29.80,3,1,13,0.01
2014-5-24,68,56,50,54,50,48,95,82,59,29.98,29.88,5,1,12,0.10
2014-5-25,69,57,50,60,53,49,96,86,66,30.02,29.93,5,1,12,0.00
2014-5-26,78,66,52,63,57,50,95,76,51,29.91,29.71,5,1,12,0.01
2014-5-27,70,58,48,61,54,47,95,87,72,29.89,29.72,7,2,14,0.41
2014-5-28,49,47,40,48,46,39,96,95,92,30.14,29.84,6,2,20,0.12
2014-5-29,66,51,36,50,42,35,98,76,48,30.18,30.08,6,1,13,0.00
2014-5-30,73,56,43,56,50,41,96,81,53,30.07,29.91,7,1,15,0.34
2014-5-31,64,55,44,50,45,27,96,73,28,30.22,29.98,7,2,18,0.00
2014-6-1,75,59,41,54,46,39,97,66,37,30.26,30.16,6,1,12,0.00
2014-6-2,84,68,48,58,52,45,92,62,33,30.15,29.90,5,1,13,0.00
2014-6-3,78,65,54,61,55,51,94,72,54,29.94,29.83,9,2,20,0.00
2014-6-4,62,59,56,57,55,50,94,86,73,29.82,29.71,5,1,10,0.04
2014-6-5,60,58,52,59,57,51,97,95,92,29.71,29.57,5,1,12,0.44
2014-6-6,75,63,51,62,56,50,98,80,54,29.78,29.60,3,1,16,0.00
2014-6-7,83,68,53,63,58,51,96,73,44,29.85,29.77,5,1,12,0.00
2014-6-8,84,70,55,65,59,54,96,71,39,29.86,29.78,3,0,8,0.00
2014-6-9,81,69,58,68,61,56,95,77,55,29.90,29.81,5,1,12,0.00
2014-6-10,79,68,59,70,63,56,96,84,70,30.03,29.84,8,1,21,0.13
2014-6-11,71,63,54,58,53,48,94,73,51,30.11,30.03,5,1,13,0.00
2014-6-12,68,62,58,60,57,53,89,81,73,30.09,30.00,6,2,16,0.00
2014-6-13,64,61,59,63,59,57,97,94,85,29.99,29.71,5,1,14,0.80
2014-6-14,74,64,59,68,61,55,98,91,76,29.82,29.73,5,0,9,0.01
2014-6-15,78,67,53,62,56,51,94,71,51,29.97,29.82,5,1,17,0.00
2014-6-16,78,65,51,57,53,49,94,69,42,30.06,29.94,6,1,12,0.00
2014-6-17,86,74,64,72,65,56,83,73,58,29.97,29.77,6,2,12,0.00
2014-6-18,84,76,69,70,66,62,92,72,54,29.83,29.62,6,2,17,0.01
2014-6-19,81,72,62,64,58,46,90,64,36,29.88,29.80,6,1,16,0.00
2014-6-20,74,64,52,54,48,44,91,59,36,29.88,29.79,7,1,18,0.00
2014-6-21,75,62,46,54,50,44,94,68,44,29.88,29.79,3,1,13,0.00
2014-6-22,75,62,47,58,52,45,95,71,47,29.95,29.84,6,1,13,0.00
2014-6-23,78,66,49,60,53,47,96,67,42,30.07,29.96,6,1,15,0.00
2014-6-24,84,72,58,66,58,51,80,63,46,30.08,29.91,8,3,20,0.00
2014-6-25,88,77,65,75,66,56,82,70,57,29.92,29.76,7,3,18,0.00
2014-6-26,78,70,59,73,66,56,97,87,78,29.93,29.71,6,1,14,1.09
2014-6-27,79,66,53,58,52,45,97,67,35,30.13,29.93,5,1,13,0.01
2014-6-28,84,68,50,63,55,47,96,67,31,30.19,30.13,3,1,10,0.00
2014-6-29,86,71,52,67,58,50,96,67,30,30.17,30.01,5,1,14,0.00
2014-6-30,89,76,63,69,63,55,80,65,49,30.02,29.82,7,1,17,0.00
2014-7-1,88,79,68,75,69,61,86,72,61,29.84,29.70,8,2,20,0.00
2014-7-2,92,81,72,79,72,66,86,74,61,29.83,29.71,6,2,20,0.00
2014-7-3,90,80,72,77,72,68,93,79,64,29.92,29.79,6,1,23,0.40
2014-7-4,73,69,63,71,67,62,97,96,94,29.91,29.71,3,1,12,1.18
2014-7-5,77,68,57,63,56,48,97,70,40,29.90,29.68,6,2,24,0.29
2014-7-6,84,73,60,63,58,51,75,59,42,29.90,29.76,6,1,20,0.00
2014-7-7,88,75,68,73,67,62,95,77,57,29.78,29.59,7,2,18,0.12
2014-7-8,89,78,68,75,71,67,96,79,57,29.70,29.58,7,2,22,0.01
2014-7-9,88,79,72,70,68,64,86,69,48,29.83,29.55,6,2,17,0.00
2014-7-10,80,71,64,66,63,60,96,78,54,30.05,29.85,3,0,17,0.03
2014-7-11,80,69,61,61,58,54,94,70,46,30.15,30.05,6,1,12,0.00
2014-7-12,85,72,56,66,61,54,96,73,42,30.14,30.02,5,1,13,0.00
2014-7-13,86,76,67,68,64,60,81,67,49,30.02,29.80,9,4,22,0.00
2014-7-14,86,76,71,75,72,68,96,87,64,29.82,29.76,3,1,14,0.35
2014-7-15,87,78,73,77,74,71,96,86,69,29.77,29.65,6,2,17,0.00
2014-7-16,76,73,69,74,71,68,97,95,91,29.74,29.67,3,0,10,1.09
2014-7-17,80,70,62,67,64,60,98,82,56,29.97,29.76,6,0,9,0.00
2014-7-18,81,68,56,65,59,55,97,76,43,30.14,29.99,2,0,8,0.00
2014-7-19,77,67,57,66,61,55,97,82,60,30.18,30.13,2,0,9,0.00
2014-7-20,78,68,58,65,60,57,96,79,55,30.14,30.06,3,1,12,0.00
2014-7-21,81,69,60,64,61,59,96,78,50,30.12,30.06,3,1,12,0.00
2014-7-22,87,74,58,74,66,57,97,78,59,30.07,29.90,3,1,10,0.00
2014-7-23,91,80,70,77,72,67,89,76,57,29.89,29.64,7,2,15,0.00
2014-7-24,76,71,63,70,66,60,94,84,71,29.81,29.66,5,1,12,0.00
2014-7-25,81,68,55,64,60,53,95,76,50,29.90,29.82,3,0,10,0.00
2014-7-26,84,72,57,67,61,56,96,73,44,29.88,29.77,6,1,17,0.00
2014-7-27,78,71,66,72,68,63,95,89,74,29.80,29.58,6,2,18,0.54
2014-7-28,84,73,67,75,69,63,98,86,69,29.59,29.34,7,2,18,2.11
2014-7-29,78,69,61,64,61,58,92,78,58,29.85,29.46,5,0,12,0.00
2014-7-30,78,67,56,63,59,55,97,79,56,29.96,29.86,2,0,8,0.00
2014-7-31,83,69,54,67,60,52,97,75,49,30.08,29.96,8,2,15,0.00
2014-8-1,83,71,61,71,66,60,96,84,62,30.13,30.07,6,1,13,0.15
2014-8-2,71,67,63,70,64,60,98,90,73,30.15,30.05,6,1,14,0.01
2014-8-3,74,66,60,64,62,58,96,87,71,30.06,29.97,5,0,10,0.00
2014-8-4,84,72,62,70,66,61,97,85,58,29.97,29.90,3,0,9,0.01
2014-8-5,86,75,64,72,68,62,97,81,53,29.94,29.80,5,0,9,0.00
2014-8-6,80,72,63,68,64,59,94,79,56,29.79,29.69,3,0,10,0.01
2014-8-7,76,66,57,63,59,55,94,81,59,29.85,29.75,3,0,12,0.02
2014-8-8,81,67,54,65,59,53,97,77,48,29.93,29.85,3,0,10,0.01
2014-8-9,82,68,55,64,59,54,97,76,48,29.99,29.93,3,1,10,0.00
2014-8-10,84,69,56,66,60,54,97,76,46,30.04,29.99,5,0,10,0.00
2014-8-11,86,72,59,69,63,58,96,75,49,30.07,30.00,6,1,14,0.00
2014-8-12,82,71,59,67,63,57,95,77,55,30.05,29.96,6,2,14,0.00
2014-8-13,68,66,63,66,64,62,97,94,85,29.94,29.53,10,4,22,1.34
2014-8-14,76,65,55,63,58,53,97,80,54,29.78,29.57,2,0,12,0.01
2014-8-15,73,62,54,60,56,52,96,80,59,29.83,29.74,1,0,10,0.00
2014-8-16,76,66,55,62,58,53,93,75,54,29.88,29.82,5,1,13,0.00
2014-8-17,78,68,58,67,61,55,95,78,60,29.82,29.67,2,0,12,0.00
2014-8-18,76,64,54,60,56,51,96,76,50,29.79,29.70,5,0,12,0.00
2014-8-19,77,62,48,62,54,46,96,78,47,29.86,29.79,5,0,10,0.00
2014-8-20,79,64,50,64,56,49,97,78,56,29.98,29.88,5,1,12,0.00
2014-8-21,75,65,53,64,60,51,97,84,62,30.02,29.97,3,0,8,0.00
2014-8-22,72,66,61,65,62,59,95,88,76,30.03,29.99,7,1,12,0.02
2014-8-23,74,64,55,62,58,53,95,80,56,30.05,30.00,6,1,16,0.00
2014-8-24,80,66,52,62,58,51,97,77,50,30.07,30.02,2,0,10,0.00
2014-8-25,88,70,56,68,62,55,97,77,46,30.07,30.01,3,0,9,0.00
2014-8-26,87,72,57,70,64,56,97,79,54,30.07,29.94,3,1,12,0.00
2014-8-27,89,76,64,74,68,61,94,78,60,29.95,29.75,7,1,14,0.03
2014-8-28,78,70,61,69,60,51,96,73,49,29.89,29.71,5,1,16,0.01
2014-8-29,74,62,51,60,55,49,95,78,57,30.19,29.90,5,1,12,0.00
2014-8-30,78,65,50,62,56,48,97,77,49,30.22,30.05,7,2,14,0.00
2014-8-31,83,74,65,74,69,61,96,85,73,30.05,29.85,5,2,15,0.76
2014-9-1,87,76,69,75,72,68,98,87,65,29.90,29.81,2,0,9,0.01
2014-9-2,90,76,68,77,72,66,98,88,60,29.84,29.65,6,1,13,0.02
2014-9-3,82,73,62,72,65,59,94,78,50,29.98,29.61,3,1,12,0.00
2014-9-4,83,70,55,66,61,54,97,76,50,30.10,30.00,2,0,8,0.00
2014-9-5,88,75,61,73,68,59,96,78,57,30.06,29.88,7,2,17,0.00
2014-9-6,90,77,66,78,72,65,96,85,62,29.87,29.65,7,2,20,0.64
2014-9-7,76,66,56,64,59,51,97,80,46,30.11,29.83,5,1,12,0.02
2014-9-8,74,61,51,59,54,50,97,79,51,30.30,30.13,5,1,16,0.00
2014-9-9,70,61,51,58,54,50,97,81,49,30.28,30.12,6,1,14,0.00
2014-9-10,73,63,58,62,59,56,96,88,69,30.11,29.96,3,1,12,0.00
2014-9-11,76,68,60,69,64,59,96,87,77,29.96,29.68,7,2,17,0.00
2014-9-12,70,61,50,60,53,48,94,77,54,30.15,29.81,3,1,16,0.00
2014-9-13,64,56,47,57,52,45,96,86,69,30.21,30.03,5,1,15,0.13
2014-9-14,64,55,46,56,49,44,96,84,58,30.15,30.02,5,1,14,0.01
2014-9-15,64,52,40,52,46,38,97,83,56,30.16,30.02,2,0,8,0.00
2014-9-16,63,54,46,59,52,45,96,93,83,30.02,29.87,0,0,5,0.02
2014-9-17,71,55,42,56,49,41,98,82,50,29.94,29.85,3,0,7,0.00
2014-9-18,72,56,41,58,49,39,97,79,55,30.05,29.85,5,0,16,0.00
2014-9-19,58,48,37,43,38,35,92,70,44,30.35,30.07,3,1,14,0.00
2014-9-20,71,54,33,59,47,31,97,80,61,30.32,30.02,8,2,20,0.00
2014-9-21,81,68,55,71,64,53,97,89,69,30.00,29.47,8,1,14,0.05
2014-9-22,68,65,61,67,62,57,97,91,74,29.60,29.44,1,0,8,0.00
2014-9-23,68,54,38,53,46,37,95,76,49,30.33,30.01,3,0,12,0.00
2014-9-24,68,54,42,56,48,40,97,83,61,30.55,30.35,5,1,14,0.00
2014-9-25,63,53,43,55,49,42,97,89,75,30.47,30.18,1,0,7,0.00
2014-9-26,75,58,47,60,53,46,97,84,57,30.17,30.05,3,0,9,0.00
2014-9-27,81,62,47,66,56,46,98,83,52,30.10,30.04,2,0,7,0.00
2014-9-28,84,66,50,68,60,49,98,83,55,30.08,29.90,2,0,9,0.00
2014-9-29,74,61,56,65,58,55,98,90,62,29.96,29.86,3,1,14,0.02